When you browse on this site, cookies collect data to enhance your experience and personalize the content and advertising you see.
Visit our Privacy Policy to learn more. By continuing to use the site, you agree to this use of cookies and data.
  • In Belgien
  • Länderverzeichnis
  • Für 7 Tage
  • Wassertemperatur
  • Satellitenkarten
  • Wetterkarte
  • Widgets
  • user-avatar
    Anmelden

    Stündliche Wetter Zadore

    Heute, 23 Mai, Donnerstag

    Zeit Temperatur Niederschläge Wind Luftdruck Luftfeuchtigkeit
    00:00 +14°C° 0 mm 1 m/S 735 mmHg 89%
    01:00 +14°C° 0 mm 1 m/S 735 mmHg 90%
    02:00 +13°C° 0 mm 1 m/S 734 mmHg 92%
    03:00 +13°C° 0 mm 1 m/S 734 mmHg 91%
    04:00 +14°C° 0 mm 1 m/S 734 mmHg 91%
    05:00 +14°C° 0 mm 1 m/S 734 mmHg 90%
    06:00 +16°C° 0 mm 2 m/S 734 mmHg 84%
    07:00 +18°C° 0 mm 2 m/S 734 mmHg 78%
    08:00 +20°C° 0 mm 2 m/S 734 mmHg 71%
    09:00 +21°C° 0.3 mm 2 m/S 734 mmHg 68%
    10:00 +23°C° 0.3 mm 2 m/S 734 mmHg 64%
    11:00 +22°C° 0.3 mm 3 m/S 734 mmHg 61%
    12:00 +22°C° 0.7 mm 3 m/S 734 mmHg 64%
    13:00 +22°C° 0.7 mm 3 m/S 734 mmHg 67%
    14:00 +22°C° 0.7 mm 3 m/S 734 mmHg 69%
    15:00 +21°C° 0.6 mm 3 m/S 734 mmHg 75%
    16:00 +20°C° 0.6 mm 3 m/S 734 mmHg 80%
    17:00 +19°C° 0.6 mm 3 m/S 735 mmHg 86%
    18:00 +17°C° 0 mm 3 m/S 735 mmHg 88%
    19:00 +14°C° 0 mm 3 m/S 735 mmHg 90%
    20:00 +12°C° 0 mm 3 m/S 736 mmHg 92%
    21:00 +11°C° 0 mm 3 m/S 736 mmHg 92%
    22:00 +10°C° 0 mm 3 m/S 736 mmHg 92%
    23:00 +8°C° 0 mm 3 m/S 737 mmHg 92%

    Morgen, 24 Mai, Freitag

    Zeit Temperatur Niederschläge Wind Luftdruck Luftfeuchtigkeit
    00:00 +8°C° 0 mm 3 m/S 737 mmHg 93%
    01:00 +7°C° 0 mm 2 m/S 738 mmHg 93%
    02:00 +6°C° 0 mm 2 m/S 738 mmHg 94%
    03:00 +6°C° 0 mm 2 m/S 738 mmHg 92%
    04:00 +5°C° 0 mm 3 m/S 739 mmHg 90%
    05:00 +7°C° 0 mm 3 m/S 739 mmHg 88%
    06:00 +8°C° 0 mm 3 m/S 739 mmHg 81%
    07:00 +10°C° 0 mm 3 m/S 739 mmHg 74%
    08:00 +11°C° 0 mm 3 m/S 740 mmHg 66%
    09:00 +13°C° 0 mm 3 m/S 740 mmHg 62%
    10:00 +14°C° 0 mm 3 m/S 740 mmHg 57%
    11:00 +16°C° 0 mm 3 m/S 740 mmHg 52%
    12:00 +17°C° 0 mm 3 m/S 740 mmHg 51%
    13:00 +18°C° 0 mm 3 m/S 739 mmHg 50%
    14:00 +18°C° 0 mm 3 m/S 739 mmHg 49%
    15:00 +18°C° 0 mm 3 m/S 739 mmHg 51%
    16:00 +18°C° 0 mm 3 m/S 739 mmHg 54%
    17:00 +18°C° 0 mm 3 m/S 738 mmHg 56%
    18:00 +16°C° 0 mm 2 m/S 738 mmHg 64%
    19:00 +15°C° 0 mm 2 m/S 738 mmHg 73%
    20:00 +13°C° 0 mm 2 m/S 738 mmHg 81%
    21:00 +13°C° 0 mm 2 m/S 738 mmHg 82%
    22:00 +13°C° 0 mm 2 m/S 738 mmHg 84%
    23:00 +12°C° 0 mm 3 m/S 738 mmHg 85%

    übermorgen, 25 Mai, Samstag

    Zeit Temperatur Niederschläge Wind Luftdruck Luftfeuchtigkeit
    00:00 +11°C° 0 mm 3 m/S 738 mmHg 89%
    01:00 +12°C° 0 mm 2 m/S 738 mmHg 92%
    02:00 +10°C° 0 mm 2 m/S 737 mmHg 96%
    03:00 +10°C° 0 mm 2 m/S 737 mmHg 95%
    04:00 +11°C° 0 mm 3 m/S 737 mmHg 94%
    05:00 +11°C° 0 mm 3 m/S 736 mmHg 92%
    06:00 +11°C° 0.1 mm 3 m/S 736 mmHg 91%
    07:00 +12°C° 0.1 mm 3 m/S 736 mmHg 90%
    08:00 +13°C° 0.1 mm 3 m/S 736 mmHg 88%
    09:00 +14°C° 0 mm 3 m/S 736 mmHg 82%
    10:00 +17°C° 0 mm 3 m/S 735 mmHg 76%
    11:00 +19°C° 0 mm 3 m/S 735 mmHg 70%
    12:00 +19°C° 0.2 mm 3 m/S 735 mmHg 73%
    13:00 +19°C° 0.2 mm 3 m/S 734 mmHg 75%
    14:00 +19°C° 0.2 mm 3 m/S 734 mmHg 77%
    15:00 +19°C° 0.4 mm 3 m/S 734 mmHg 79%
    16:00 +19°C° 0.4 mm 3 m/S 733 mmHg 81%
    17:00 +19°C° 0.4 mm 3 m/S 732 mmHg 83%
    18:00 +18°C° 0.6 mm 3 m/S 732 mmHg 87%
    19:00 +17°C° 0.6 mm 3 m/S 732 mmHg 91%
    20:00 +16°C° 0.6 mm 2 m/S 732 mmHg 95%
    21:00 +15°C° 0.7 mm 2 m/S 731 mmHg 96%
    22:00 +15°C° 0.7 mm 2 m/S 731 mmHg 97%
    23:00 +14°C° 0.7 mm 2 m/S 731 mmHg 97%

    26 Mai, Sonntag

    Zeit Temperatur Niederschläge Wind Luftdruck Luftfeuchtigkeit
    00:00 +13°C° 0 mm 2 m/S 731 mmHg 97%
    01:00 +12°C° 0 mm 2 m/S 731 mmHg 97%
    02:00 +12°C° 0 mm 2 m/S 731 mmHg 97%
    03:00 +12°C° 0 mm 2 m/S 731 mmHg 96%
    04:00 +12°C° 0 mm 2 m/S 731 mmHg 95%
    05:00 +12°C° 0 mm 2 m/S 731 mmHg 95%
    06:00 +13°C° 0 mm 2 m/S 732 mmHg 88%
    07:00 +13°C° 0 mm 3 m/S 732 mmHg 81%
    08:00 +14°C° 0 mm 3 m/S 732 mmHg 75%
    09:00 +16°C° 0 mm 3 m/S 732 mmHg 68%
    10:00 +17°C° 0 mm 3 m/S 732 mmHg 61%
    11:00 +18°C° 0 mm 3 m/S 732 mmHg 54%
    12:00 +19°C° 0 mm 3 m/S 732 mmHg 52%
    13:00 +20°C° 0 mm 3 m/S 732 mmHg 50%
    14:00 +20°C° 0 mm 3 m/S 732 mmHg 48%
    15:00 +20°C° 0 mm 3 m/S 732 mmHg 50%
    16:00 +20°C° 0 mm 3 m/S 732 mmHg 51%
    17:00 +19°C° 0 mm 3 m/S 731 mmHg 53%
    18:00 +18°C° 0 mm 3 m/S 731 mmHg 62%
    19:00 +16°C° 0 mm 2 m/S 731 mmHg 70%
    20:00 +14°C° 0 mm 2 m/S 731 mmHg 79%
    21:00 +13°C° 0 mm 2 m/S 731 mmHg 82%
    22:00 +13°C° 0 mm 2 m/S 731 mmHg 85%
    23:00 +12°C° 0 mm 2 m/S 731 mmHg 88%

    27 Mai, Montag

    Zeit Temperatur Niederschläge Wind Luftdruck Luftfeuchtigkeit
    00:00 +12°C° 0.5 mm 2 m/S 731 mmHg 90%
    01:00 +10°C° 0.5 mm 3 m/S 731 mmHg 92%
    02:00 +10°C° 0.5 mm 3 m/S 731 mmHg 94%
    03:00 +8°C° 0.2 mm 4 m/S 731 mmHg 94%
    04:00 +8°C° 0.2 mm 4 m/S 731 mmHg 93%
    05:00 +8°C° 0.2 mm 4 m/S 732 mmHg 92%
    06:00 +8°C° 0.2 mm 5 m/S 732 mmHg 87%
    07:00 +8°C° 0.2 mm 5 m/S 732 mmHg 82%
    08:00 +9°C° 0.2 mm 6 m/S 733 mmHg 77%
    09:00 +9°C° 0.1 mm 6 m/S 733 mmHg 74%
    10:00 +9°C° 0.1 mm 6 m/S 734 mmHg 71%
    11:00 +9°C° 0.1 mm 6 m/S 734 mmHg 68%
    12:00 +10°C° 0 mm 6 m/S 735 mmHg 63%
    13:00 +13°C° 0 mm 6 m/S 735 mmHg 59%
    14:00 +14°C° 0 mm 5 m/S 736 mmHg 54%
    15:00 +14°C° 0 mm 4 m/S 736 mmHg 57%
    16:00 +14°C° 0 mm 4 m/S 736 mmHg 60%
    17:00 +14°C° 0 mm 3 m/S 736 mmHg 62%
    18:00 +13°C° 0 mm 3 m/S 737 mmHg 66%
    19:00 +13°C° 0 mm 2 m/S 737 mmHg 69%
    20:00 +13°C° 0 mm 2 m/S 738 mmHg 72%
    21:00 +12°C° 0 mm 2 m/S 738 mmHg 77%
    22:00 +9°C° 0 mm 2 m/S 738 mmHg 82%
    23:00 +8°C° 0 mm 2 m/S 739 mmHg 87%

    28 Mai, Dienstag

    Zeit Temperatur Niederschläge Wind Luftdruck Luftfeuchtigkeit
    00:00 +8°C° 0 mm 2 m/S 739 mmHg 89%
    01:00 +7°C° 0 mm 2 m/S 739 mmHg 90%
    02:00 +7°C° 0 mm 2 m/S 740 mmHg 92%
    03:00 +8°C° 0 mm 1 m/S 740 mmHg 89%
    04:00 +9°C° 0 mm 1 m/S 741 mmHg 85%
    05:00 +10°C° 0 mm 1 m/S 741 mmHg 82%
    06:00 +12°C° 0 mm 1 m/S 741 mmHg 76%
    07:00 +14°C° 0 mm 2 m/S 741 mmHg 69%
    08:00 +17°C° 0 mm 2 m/S 741 mmHg 62%
    09:00 +18°C° 0 mm 2 m/S 741 mmHg 59%
    10:00 +20°C° 0 mm 2 m/S 741 mmHg 55%
    11:00 +21°C° 0 mm 3 m/S 741 mmHg 52%
    12:00 +22°C° 0 mm 3 m/S 741 mmHg 52%
    13:00 +24°C° 0 mm 3 m/S 741 mmHg 53%
    14:00 +25°C° 0 mm 4 m/S 740 mmHg 53%
    15:00 +22°C° 0.2 mm 3 m/S 740 mmHg 65%
    16:00 +20°C° 0.2 mm 3 m/S 740 mmHg 76%
    17:00 +19°C° 0.2 mm 3 m/S 739 mmHg 88%
    18:00 +18°C° 0 mm 3 m/S 739 mmHg 90%
    19:00 +18°C° 0 mm 3 m/S 739 mmHg 92%
    20:00 +18°C° 0 mm 3 m/S 739 mmHg 95%
    21:00 +18°C° 0.3 mm 3 m/S 739 mmHg 95%
    22:00 +18°C° 0.3 mm 3 m/S 738 mmHg 95%
    23:00 +18°C° 0.3 mm 3 m/S 738 mmHg 94%
    Mehr zeigen